Find WHDW 01-06

NORAD ID: 62328 Int'l Des: 2024-240 Owner: ZXW Country: CN Constellation: xingwang operational
LEOCIRCULARPOLARONEWEB_TYPE

实时位置

正在加载3D地球...

关于 WHDW 01-06

正在加载描述...

即将过境

Passes for default location (London). Set your location on the main map for personalized predictions.

高度历史

Loading altitude history...

两行轨道根数

1 62328U 24240F 26106.84176926 .00000035 00000-0 47340-4 0 9991
2 62328 86.5031 3.8118 0002032 70.2444 289.8909 13.24413465 64520
Epoch: Apr 16, 2026 • Age: 4 hours

当前状态

高度 1180.2 km
速度 7.27 km/s
星下点 82.66°N, 54.29°W
发射日期 Dec 16, 2024
运行时间 1.3 years
类型 other

技术详情

分类 Payload
质量 800.00 kg
干质量 800.00 kg
总质量 800.00 kg
长度 3.00 m
直径 1.00 m
跨度 10.00 m
形状 Box + 2 Pan
制造商 CAST
平台类型 Xingwang CL
阶段状态 In Orbit
所有者/国家 ZXW/CN

Most Searched